STARLINK-31432, 59932

Orbit data source: Space-Track

STARLINK-31432, 59932 is a payload satellite owned by SpaceX/Seattle (US) in LEO that was launched on Sat, 01 Jun 2024 UTC via an FALCON 9 launch vehicle from the Air Force Eastern Test Range (AFETR). Payload-class satellites include a variety of spacecraft equipped with specific instruments for various scientific and technological missions. These include communications satellites like Starlink; space stations such as the ISS; scientific satellites like the Hubble; Earth observation satellites from companies like Planet Labs, Umbra, and HawkEye 360; GPS; miniature CubeSats for education and research; and military/defense satellites.

Loading next visibility...
Identifier
59932, 2024-106L
Orbit
LEO
Country
Flag of USUS
Related business
Manufacturer
SpaceX/Seattle
Mission
Operational Commercial Communications
Bus & Motor
STARLINK V2M, Unknown motor
Mass
730 kg wet, ~700 kg dry
Launch date (UTC)
2024-06-01 (2 years ago)
Launch vehicle
FALCON 9
Launch site
Air Force Eastern Test Range (AFETR)
Object type
Payload
Rocket body
Debris
Shape & HBR
Box + 2 Pan, 17.7 m
Radar Cross Section
33.884 m², Large (>1 m²)

Expand to show TLE details & history
Last TLE update: 8 hours ago

TLE from 8 hours ago
0 STARLINK-31432
1 59932U 24106L   26038.29938043  .00173623  00000-0  61605-2 0  9990
2 59932  42.9976 144.2687 0001826 327.8499  32.2241 15.27640088 95861
Epoch: 2026-02-07T07:11Z
TLE epoch observation values (Epoch: 2026-02-07T07:11:06.469Z)
Latitude
-0.00001°
Longitude
-100.93316°
Altitude
481.585 km
Speed
7.627 km/s
True Right ascension
09h 37m 04s
True Declination
0° 00' 00"
Sunlit
Object was in full shadow at epoch
Visualization orbit readout
Latitude
Unknown
Longitude
Unknown
Altitude
Unknown
Speed
Unknown
Apparent Right ascension
Unknown
Apparent Declination
Unknown
Sunlit
N/A
Visualization observer readout
Local Sidereal Time
17:38:27
Azimuth
Unknown
Elevation
Unknown
Doppler factor
Unknown
Orbital elements
Apogee altitude
486.068 km
Perigee altitude
483.562 km
Semi-major axis
6,862.952 km
Eccentricity
0.00018
Inclination
42.9976°
RAAN
144.2687°
Arg. of periapsis
327.8499°
True anomaly
32.23526°
Mean anomaly
32.2241°
Eccentric anomaly
32.22968°
Mean motion
3.81748 °/min
Orbital period
94.3 mins
BSTAR
0.0061605
Loading maneuver chart data...
Computing Atmospheric mass density...
Loading historical data...
Loading historical data...
Loading historical data...
Loading historical data...
Loading historical data...
Loading historical data...
Loading historical data...

Documentation

Showing up to 5 results
|